This demonstration page uses our WeatherBlox Daily Observations layout. Learn more.

Left ArrowRight Arrow

Hourly Observations for December 19, 2018

Temp ( °F °C ) Dew Point ( °F °C ) Humidity (%) Winds ( mph kmh ) Pressure ( in mb ) Visibility ( mi km ) Precip ( " mm )
12:53 am 00:53 Clear 35 1.7 30 -1.1 82 82 SW 6 9 29.77 1008 10 16 0.00 0.00
1:53 am 01:53 Clear 33 0.6 29 -1.7 85 85 SW 7 11 29.75 1007 10 16 0.00 0.00
2:53 am 02:53 Clear 34 1.1 29 -1.7 82 82 SW 6 9 29.74 1007 10 16 0.00 0.00
3:53 am 03:53 Clear 35 1.7 29 -1.7 78 78 SW 7 11 29.72 1007 10 16 0.00 0.00
4:53 am 04:53 Clear 34 1.1 29 -1.7 82 82 SW 7 11 29.70 1006 10 16 0.00 0.00
5:53 am 05:53 Clear 33 0.6 28 -2.2 82 82 SW 7 11 29.69 1006 10 16 0.00 0.00
6:53 am 06:53 Clear 33 0.6 28 -2.2 82 82 WSW 7 11 29.68 1005 10 16 0.00 0.00
7:53 am 07:53 Sunny 32 0 27 -2.8 82 82 WSW 7 11 29.70 1006 10 16 0.00 0.00
8:53 am 08:53 Sunny 37 2.8 30 -1.1 76 76 W 14 22 29.70 1006 10 16 0.00 0.00
9:53 am 09:53 Sunny 42 5.6 33 0.6 71 71 NW 15 24 29.72 1006 10 16 0.00 0.00
10:53 am 10:53 Sunny 49 9.4 37 2.8 64 64 NW 18 30 29.73 1007 10 16 0.00 0.00
11:53 am 11:53 Mostly Cloudy 48 8.9 38 3.3 68 68 NW 22 35 29.73 1007 10 16 0.00 0.00
12:53 pm 12:53 Cloudy 48 8.9 38 3.3 68 68 NNW 17 28 29.72 1006 10 16 0.00 0.00
1:53 pm 13:53 Mostly Cloudy 49 9.4 38 3.3 66 66 NW 13 20 29.72 1007 10 16 0.00 0.00
2:53 pm 14:53 Mostly Sunny 50 10 36 2.2 59 59 NW 17 28 29.74 1007 10 16 0.00 0.00
3:53 pm 15:53 Mostly Cloudy 49 9.4 34 1.1 56 56 NW 15 24 29.78 1008 10 16 0.00 0.00
4:53 pm 16:53 Mostly Cloudy 48 8.9 33 0.6 56 56 NW 12 19 29.80 1009 10 16 0.00 0.00
5:53 pm 17:53 Clear 39 3.9 31 -0.6 73 73 WNW 8 13 29.83 1010 10 16 0.00 0.00
6:53 pm 18:53 Clear 38 3.3 30 -1.1 73 73 WNW 10 17 29.84 1011 10 16 0.00 0.00
7:53 pm 19:53 Clear 39 3.9 29 -1.7 67 67 NW 13 20 29.86 1011 10 16 0.00 0.00
8:53 pm 20:53 Clear 38 3.3 29 -1.7 70 70 undefined N/A 29.87 1012 10 16 0.00 0.00
9:53 pm 21:53 Clear 38 3.3 29 -1.7 70 70 NW 15 24 29.89 1012 10 16 0.00 0.00
10:53 pm 22:53 Clear 39 3.9 29 -1.7 67 67 NW 15 24 29.91 1013 10 16 0.00 0.00
11:53 pm 23:53 Clear 37 2.8 29 -1.7 73 73 WNW 14 22 29.92 1013 10 16 0.00 0.00

Powered by AerisWeather